owner,sensor,date,latitude,longitude,vertical_datum,sea_water_temperature,qcFlag
Chevron,ioos:station:wmo:42385:1,2021-12-01T00:13:00Z,28.3400,-88.2657,29.4,24.1,11111222
Chevron,ioos:station:wmo:42385:1,2021-12-01T00:33:00Z,28.3400,-88.2657,29.4,24.1,11111222
Chevron,ioos:station:wmo:42385:1,2021-12-01T00:53:00Z,28.3400,-88.2657,29.4,24.1,11111222
Chevron,ioos:station:wmo:42385:1,2021-12-01T01:13:00Z,28.3400,-88.2657,29.4,24.1,11111222
Chevron,ioos:station:wmo:42385:1,2021-12-01T01:33:00Z,28.3400,-88.2657,29.4,24.1,11111222
Chevron,ioos:station:wmo:42385:1,2021-12-01T01:53:00Z,28.3400,-88.2657,29.4,24.0,11111222
Chevron,ioos:station:wmo:42385:1,2021-12-01T02:13:00Z,28.3400,-88.2657,29.4,24.1,11111222
Chevron,ioos:station:wmo:42385:1,2021-12-01T02:33:00Z,28.3400,-88.2657,29.4,24.1,11111222
Chevron,ioos:station:wmo:42385:1,2021-12-01T02:53:00Z,28.3400,-88.2657,29.4,24.0,11111222
Chevron,ioos:station:wmo:42385:1,2021-12-01T03:13:00Z,28.3400,-88.2657,29.4,24.1,11111222
Chevron,ioos:station:wmo:42385:1,2021-12-01T03:33:00Z,28.3400,-88.2657,29.4,24.0,11111222
Chevron,ioos:station:wmo:42385:1,2021-12-01T03:53:00Z,28.3400,-88.2657,29.4,24.1,11111222
Chevron,ioos:station:wmo:42385:1,2021-12-01T04:13:00Z,28.3400,-88.2657,29.4,24.1,11111222
Chevron,ioos:station:wmo:42385:1,2021-12-01T04:33:00Z,28.3400,-88.2657,29.4,24.1,11111222
Chevron,ioos:station:wmo:42385:1,2021-12-01T04:53:00Z,28.3400,-88.2657,29.4,24.1,11111222
Chevron,ioos:station:wmo:42385:1,2021-12-01T05:13:00Z,28.3400,-88.2657,29.4,24.0,11111222
Chevron,ioos:station:wmo:42385:1,2021-12-01T05:33:00Z,28.3400,-88.2657,29.4,24.1,11111222
Chevron,ioos:station:wmo:42385:1,2021-12-01T05:53:00Z,28.3400,-88.2657,29.4,23.8,11111222
Chevron,ioos:station:wmo:42385:1,2021-12-01T06:13:00Z,28.3400,-88.2657,29.4,24.0,11111222
Chevron,ioos:station:wmo:42385:1,2021-12-01T06:33:00Z,28.3400,-88.2657,29.4,24.1,11111222
Chevron,ioos:station:wmo:42385:1,2021-12-01T06:53:00Z,28.3400,-88.2657,29.4,24.1,11111222
Chevron,ioos:station:wmo:42385:1,2021-12-01T07:13:00Z,28.3400,-88.2657,29.4,24.0,11111222
Chevron,ioos:station:wmo:42385:1,2021-12-01T07:33:00Z,28.3400,-88.2657,29.4,24.0,11111222
Chevron,ioos:station:wmo:42385:1,2021-12-01T07:53:00Z,28.3400,-88.2657,29.4,23.9,11111222
Chevron,ioos:station:wmo:42385:1,2021-12-01T08:13:00Z,28.3400,-88.2657,29.4,24.0,11111222
Chevron,ioos:station:wmo:42385:1,2021-12-01T08:33:00Z,28.3400,-88.2657,29.4,24.1,11111222
Chevron,ioos:station:wmo:42385:1,2021-12-01T08:53:00Z,28.3400,-88.2657,29.4,24.0,11111222
Chevron,ioos:station:wmo:42385:1,2021-12-01T09:13:00Z,28.3400,-88.2657,29.4,24.0,11111222
Chevron,ioos:station:wmo:42385:1,2021-12-01T09:33:00Z,28.3400,-88.2657,29.4,24.1,11111222
Chevron,ioos:station:wmo:42385:1,2021-12-01T09:53:00Z,28.3400,-88.2657,29.4,24.0,11111222
Chevron,ioos:station:wmo:42385:1,2021-12-01T10:13:00Z,28.3400,-88.2657,29.4,23.9,11111222
Chevron,ioos:station:wmo:42385:1,2021-12-01T10:33:00Z,28.3400,-88.2657,29.4,23.9,11111222
Chevron,ioos:station:wmo:42385:1,2021-12-01T10:53:00Z,28.3400,-88.2657,29.4,23.9,11111222
Chevron,ioos:station:wmo:42385:1,2021-12-01T11:13:00Z,28.3400,-88.2657,29.4,24.0,11111222
Chevron,ioos:station:wmo:42385:1,2021-12-01T11:33:00Z,28.3400,-88.2657,29.4,24.0,11111222
Chevron,ioos:station:wmo:42385:1,2021-12-01T11:53:00Z,28.3400,-88.2657,29.4,24.1,11111222
Chevron,ioos:station:wmo:42385:1,2021-12-01T12:13:00Z,28.3400,-88.2657,29.4,23.9,11111222
Chevron,ioos:station:wmo:42385:1,2021-12-01T12:33:00Z,28.3400,-88.2657,29.4,24.1,11111222
Chevron,ioos:station:wmo:42385:1,2021-12-01T12:53:00Z,28.3400,-88.2657,29.4,24.1,11111222
Chevron,ioos:station:wmo:42385:1,2021-12-01T13:13:00Z,28.3400,-88.2657,29.4,24.1,11111222
Chevron,ioos:station:wmo:42385:1,2021-12-01T13:33:00Z,28.3400,-88.2657,29.4,24.1,11111222
Chevron,ioos:station:wmo:42385:1,2021-12-01T13:53:00Z,28.3400,-88.2657,29.4,24.0,11111222
Chevron,ioos:station:wmo:42385:1,2021-12-01T14:13:00Z,28.3400,-88.2657,29.4,24.0,11111222
Chevron,ioos:station:wmo:42385:1,2021-12-01T14:33:00Z,28.3400,-88.2657,29.4,24.1,11111222
Chevron,ioos:station:wmo:42385:1,2021-12-01T14:53:00Z,28.3400,-88.2657,29.4,24.1,11111222
Chevron,ioos:station:wmo:42385:1,2021-12-01T15:13:00Z,28.3400,-88.2657,29.4,24.2,11111222
Chevron,ioos:station:wmo:42385:1,2021-12-01T15:33:00Z,28.3400,-88.2657,29.4,24.1,11111222
Chevron,ioos:station:wmo:42385:1,2021-12-01T15:53:00Z,28.3400,-88.2657,29.4,24.0,11111222
Chevron,ioos:station:wmo:42385:1,2021-12-01T16:13:00Z,28.3400,-88.2657,29.4,24.0,11111222
Chevron,ioos:station:wmo:42385:1,2021-12-01T16:33:00Z,28.3400,-88.2657,29.4,24.2,11111222
Chevron,ioos:station:wmo:42385:1,2021-12-01T16:53:00Z,28.3400,-88.2657,29.4,24.0,11111222
Chevron,ioos:station:wmo:42385:1,2021-12-01T17:13:00Z,28.3400,-88.2657,29.4,24.0,11111222
Chevron,ioos:station:wmo:42385:1,2021-12-01T17:33:00Z,28.3400,-88.2657,29.4,24.1,11111222
Chevron,ioos:station:wmo:42385:1,2021-12-01T17:53:00Z,28.3400,-88.2657,29.4,24.0,11111222
Chevron,ioos:station:wmo:42385:1,2021-12-01T18:13:00Z,28.3400,-88.2657,29.4,24.1,11111222
Chevron,ioos:station:wmo:42385:1,2021-12-01T18:33:00Z,28.3400,-88.2657,29.4,24.2,11111222
Chevron,ioos:station:wmo:42385:1,2021-12-01T18:53:00Z,28.3400,-88.2657,29.4,24.0,11111222
Chevron,ioos:station:wmo:42385:1,2021-12-01T19:13:00Z,28.3400,-88.2657,29.4,24.2,11111222
Chevron,ioos:station:wmo:42385:1,2021-12-01T19:33:00Z,28.3400,-88.2657,29.4,24.1,11111222
Chevron,ioos:station:wmo:42385:1,2021-12-01T19:53:00Z,28.3400,-88.2657,29.4,24.1,11111222
Chevron,ioos:station:wmo:42385:1,2021-12-01T20:13:00Z,28.3400,-88.2657,29.4,24.3,11111222
Chevron,ioos:station:wmo:42385:1,2021-12-01T20:33:00Z,28.3400,-88.2657,29.4,24.1,11111222
Chevron,ioos:station:wmo:42385:1,2021-12-01T20:53:00Z,28.3400,-88.2657,29.4,24.0,11111222
Chevron,ioos:station:wmo:42385:1,2021-12-01T21:13:00Z,28.3400,-88.2657,29.4,24.0,11111222
Chevron,ioos:station:wmo:42385:1,2021-12-01T21:33:00Z,28.3400,-88.2657,29.4,24.1,11111222
Chevron,ioos:station:wmo:42385:1,2021-12-01T21:53:00Z,28.3400,-88.2657,29.4,24.1,11111222
Chevron,ioos:station:wmo:42385:1,2021-12-01T22:13:00Z,28.3400,-88.2657,29.4,24.1,11111222
Chevron,ioos:station:wmo:42385:1,2021-12-01T22:33:00Z,28.3400,-88.2657,29.4,24.1,11111222
Chevron,ioos:station:wmo:42385:1,2021-12-01T22:53:00Z,28.3400,-88.2657,29.4,24.1,11111222
Chevron,ioos:station:wmo:42385:1,2021-12-01T23:13:00Z,28.3400,-88.2657,29.4,24.1,11111222
Chevron,ioos:station:wmo:42385:1,2021-12-01T23:33:00Z,28.3400,-88.2657,29.4,24.1,11111222
Chevron,ioos:station:wmo:42385:1,2021-12-01T23:53:00Z,28.3400,-88.2657,29.4,23.9,11111222
Chevron,ioos:station:wmo:42385:1,2021-12-02T00:13:00Z,28.3400,-88.2657,29.4,24.0,11111222
Chevron,ioos:station:wmo:42385:1,2021-12-02T00:33:00Z,28.3400,-88.2657,29.4,24.1,11111222
Chevron,ioos:station:wmo:42385:1,2021-12-02T00:53:00Z,28.3400,-88.2657,29.4,24.1,11111222
Chevron,ioos:station:wmo:42385:1,2021-12-02T01:13:00Z,28.3400,-88.2657,29.4,24.2,11111222
Chevron,ioos:station:wmo:42385:1,2021-12-02T01:33:00Z,28.3400,-88.2657,29.4,24.0,11111222
Chevron,ioos:station:wmo:42385:1,2021-12-02T01:53:00Z,28.3400,-88.2657,29.4,24.2,11111222
Chevron,ioos:station:wmo:42385:1,2021-12-02T02:13:00Z,28.3400,-88.2657,29.4,24.1,11111222
Chevron,ioos:station:wmo:42385:1,2021-12-02T02:33:00Z,28.3400,-88.2657,29.4,24.1,11111222
Chevron,ioos:station:wmo:42385:1,2021-12-02T02:53:00Z,28.3400,-88.2657,29.4,24.0,11111222
Chevron,ioos:station:wmo:42385:1,2021-12-02T03:13:00Z,28.3400,-88.2657,29.4,24.2,11111222
Chevron,ioos:station:wmo:42385:1,2021-12-02T03:33:00Z,28.3400,-88.2657,29.4,24.7,11111222
Chevron,ioos:station:wmo:42385:1,2021-12-02T03:53:00Z,28.3400,-88.2657,29.4,24.2,11111222
Chevron,ioos:station:wmo:42385:1,2021-12-02T04:13:00Z,28.3400,-88.2657,29.4,24.0,11111222
Chevron,ioos:station:wmo:42385:1,2021-12-02T04:33:00Z,28.3400,-88.2657,29.4,24.1,11111222
Chevron,ioos:station:wmo:42385:1,2021-12-02T04:53:00Z,28.3400,-88.2657,29.4,23.6,11111222
Chevron,ioos:station:wmo:42385:1,2021-12-02T05:13:00Z,28.3400,-88.2657,29.4,24.0,11111222
Chevron,ioos:station:wmo:42385:1,2021-12-02T05:33:00Z,28.3400,-88.2657,29.4,24.2,11111222
Chevron,ioos:station:wmo:42385:1,2021-12-02T05:53:00Z,28.3400,-88.2657,29.4,24.0,11111222
Chevron,ioos:station:wmo:42385:1,2021-12-02T06:13:00Z,28.3400,-88.2657,29.4,23.9,11111222
Chevron,ioos:station:wmo:42385:1,2021-12-02T06:33:00Z,28.3400,-88.2657,29.4,24.0,11111222
Chevron,ioos:station:wmo:42385:1,2021-12-02T06:53:00Z,28.3400,-88.2657,29.4,24.1,11111222
Chevron,ioos:station:wmo:42385:1,2021-12-02T07:13:00Z,28.3400,-88.2657,29.4,24.3,11111222
Chevron,ioos:station:wmo:42385:1,2021-12-02T07:33:00Z,28.3400,-88.2657,29.4,24.1,11111222
Chevron,ioos:station:wmo:42385:1,2021-12-02T07:53:00Z,28.3400,-88.2657,29.4,24.0,11111222
Chevron,ioos:station:wmo:42385:1,2021-12-02T08:13:00Z,28.3400,-88.2657,29.4,24.0,11111222
Chevron,ioos:station:wmo:42385:1,2021-12-02T08:33:00Z,28.3400,-88.2657,29.4,24.0,11111222
Chevron,ioos:station:wmo:42385:1,2021-12-02T08:53:00Z,28.3400,-88.2657,29.4,24.1,11111222
Chevron,ioos:station:wmo:42385:1,2021-12-02T09:13:00Z,28.3400,-88.2657,29.4,24.0,11111222
Chevron,ioos:station:wmo:42385:1,2021-12-02T09:33:00Z,28.3400,-88.2657,29.4,24.1,11111222
Chevron,ioos:station:wmo:42385:1,2021-12-02T09:53:00Z,28.3400,-88.2657,29.4,24.1,11111222
Chevron,ioos:station:wmo:42385:1,2021-12-02T10:13:00Z,28.3400,-88.2657,29.4,24.1,11111222
Chevron,ioos:station:wmo:42385:1,2021-12-02T10:33:00Z,28.3400,-88.2657,29.4,24.0,11111222
Chevron,ioos:station:wmo:42385:1,2021-12-02T10:53:00Z,28.3400,-88.2657,29.4,24.0,11111222
Chevron,ioos:station:wmo:42385:1,2021-12-02T11:13:00Z,28.3400,-88.2657,29.4,24.4,11111222
Chevron,ioos:station:wmo:42385:1,2021-12-02T11:33:00Z,28.3400,-88.2657,29.4,24.1,11111222
Chevron,ioos:station:wmo:42385:1,2021-12-02T11:53:00Z,28.3400,-88.2657,29.4,24.0,11111222
Chevron,ioos:station:wmo:42385:1,2021-12-02T12:13:00Z,28.3400,-88.2657,29.4,24.1,11111222
Chevron,ioos:station:wmo:42385:1,2021-12-02T12:33:00Z,28.3400,-88.2657,29.4,24.1,11111222
Chevron,ioos:station:wmo:42385:1,2021-12-02T12:53:00Z,28.3400,-88.2657,29.4,24.0,11111222
Chevron,ioos:station:wmo:42385:1,2021-12-02T13:13:00Z,28.3400,-88.2657,29.4,24.0,11111222
Chevron,ioos:station:wmo:42385:1,2021-12-02T13:33:00Z,28.3400,-88.2657,29.4,24.2,11111222
Chevron,ioos:station:wmo:42385:1,2021-12-02T13:53:00Z,28.3400,-88.2657,29.4,24.0,11111222
Chevron,ioos:station:wmo:42385:1,2021-12-02T14:13:00Z,28.3400,-88.2657,29.4,24.0,11111222
Chevron,ioos:station:wmo:42385:1,2021-12-02T14:33:00Z,28.3400,-88.2657,29.4,24.0,11111222
Chevron,ioos:station:wmo:42385:1,2021-12-02T14:53:00Z,28.3400,-88.2657,29.4,24.1,11111222
Chevron,ioos:station:wmo:42385:1,2021-12-02T15:13:00Z,28.3400,-88.2657,29.4,24.0,11111222
Chevron,ioos:station:wmo:42385:1,2021-12-02T15:33:00Z,28.3400,-88.2657,29.4,24.1,11111222
Chevron,ioos:station:wmo:42385:1,2021-12-02T15:53:00Z,28.3400,-88.2657,29.4,24.0,11111222
Chevron,ioos:station:wmo:42385:1,2021-12-02T16:13:00Z,28.3400,-88.2657,29.4,23.9,11111222
Chevron,ioos:station:wmo:42385:1,2021-12-02T16:33:00Z,28.3400,-88.2657,29.4,24.1,11111222
Chevron,ioos:station:wmo:42385:1,2021-12-02T16:53:00Z,28.3400,-88.2657,29.4,23.9,11111222
Chevron,ioos:station:wmo:42385:1,2021-12-02T17:13:00Z,28.3400,-88.2657,29.4,24.1,11111222
Chevron,ioos:station:wmo:42385:1,2021-12-02T17:33:00Z,28.3400,-88.2657,29.4,24.1,11111222
Chevron,ioos:station:wmo:42385:1,2021-12-02T17:53:00Z,28.3400,-88.2657,29.4,24.0,11111222
Chevron,ioos:station:wmo:42385:1,2021-12-02T18:13:00Z,28.3400,-88.2657,29.4,23.8,11111222
Chevron,ioos:station:wmo:42385:1,2021-12-02T18:33:00Z,28.3400,-88.2657,29.4,23.5,11111222
Chevron,ioos:station:wmo:42385:1,2021-12-02T18:53:00Z,28.3400,-88.2657,29.4,23.7,11111222
Chevron,ioos:station:wmo:42385:1,2021-12-02T19:13:00Z,28.3400,-88.2657,29.4,23.6,11111222
Chevron,ioos:station:wmo:42385:1,2021-12-02T19:33:00Z,28.3400,-88.2657,29.4,23.6,11111222
Chevron,ioos:station:wmo:42385:1,2021-12-02T19:53:00Z,28.3400,-88.2657,29.4,23.6,11111222
Chevron,ioos:station:wmo:42385:1,2021-12-02T20:13:00Z,28.3400,-88.2657,29.4,23.5,11111222
Chevron,ioos:station:wmo:42385:1,2021-12-02T20:33:00Z,28.3400,-88.2657,29.4,23.4,11111222
Chevron,ioos:station:wmo:42385:1,2021-12-02T20:53:00Z,28.3400,-88.2657,29.4,23.4,11111222
Chevron,ioos:station:wmo:42385:1,2021-12-02T21:13:00Z,28.3400,-88.2657,29.4,23.4,11111222
Chevron,ioos:station:wmo:42385:1,2021-12-02T21:33:00Z,28.3400,-88.2657,29.4,23.3,11111222
Chevron,ioos:station:wmo:42385:1,2021-12-02T21:53:00Z,28.3400,-88.2657,29.4,23.4,11111222
Chevron,ioos:station:wmo:42385:1,2021-12-02T22:13:00Z,28.3400,-88.2657,29.4,23.2,11111222
Chevron,ioos:station:wmo:42385:1,2021-12-02T22:33:00Z,28.3400,-88.2657,29.4,23.1,11111222
Chevron,ioos:station:wmo:42385:1,2021-12-02T22:53:00Z,28.3400,-88.2657,29.4,23.3,11111222
Chevron,ioos:station:wmo:42385:1,2021-12-02T23:13:00Z,28.3400,-88.2657,29.4,23.3,11111222
Chevron,ioos:station:wmo:42385:1,2021-12-02T23:33:00Z,28.3400,-88.2657,29.4,23.3,11111222
Chevron,ioos:station:wmo:42385:1,2021-12-02T23:53:00Z,28.3400,-88.2657,29.4,23.4,11111222
Chevron,ioos:station:wmo:42385:1,2021-12-03T00:13:00Z,28.3400,-88.2657,29.4,23.3,11111222
Chevron,ioos:station:wmo:42385:1,2021-12-03T00:33:00Z,28.3400,-88.2657,29.4,23.3,11111222
Chevron,ioos:station:wmo:42385:1,2021-12-03T00:53:00Z,28.3400,-88.2657,29.4,23.2,11111222
Chevron,ioos:station:wmo:42385:1,2021-12-03T01:13:00Z,28.3400,-88.2657,29.4,23.3,11111222
Chevron,ioos:station:wmo:42385:1,2021-12-03T01:33:00Z,28.3400,-88.2657,29.4,23.3,11111222
Chevron,ioos:station:wmo:42385:1,2021-12-03T01:53:00Z,28.3400,-88.2657,29.4,23.3,11111222
Chevron,ioos:station:wmo:42385:1,2021-12-03T02:13:00Z,28.3400,-88.2657,29.4,23.3,11111222
Chevron,ioos:station:wmo:42385:1,2021-12-03T02:33:00Z,28.3400,-88.2657,29.4,23.4,11111222
Chevron,ioos:station:wmo:42385:1,2021-12-03T02:53:00Z,28.3400,-88.2657,29.4,23.2,11111222
Chevron,ioos:station:wmo:42385:1,2021-12-03T03:13:00Z,28.3400,-88.2657,29.4,23.2,11111222
Chevron,ioos:station:wmo:42385:1,2021-12-03T03:33:00Z,28.3400,-88.2657,29.4,23.3,11111222
Chevron,ioos:station:wmo:42385:1,2021-12-03T03:53:00Z,28.3400,-88.2657,29.4,23.3,11111222
Chevron,ioos:station:wmo:42385:1,2021-12-03T04:13:00Z,28.3400,-88.2657,29.4,23.3,11111222
Chevron,ioos:station:wmo:42385:1,2021-12-03T04:33:00Z,28.3400,-88.2657,29.4,23.4,11111222
Chevron,ioos:station:wmo:42385:1,2021-12-03T04:53:00Z,28.3400,-88.2657,29.4,23.4,11111222
Chevron,ioos:station:wmo:42385:1,2021-12-03T05:13:00Z,28.3400,-88.2657,29.4,23.3,11111222
Chevron,ioos:station:wmo:42385:1,2021-12-03T05:33:00Z,28.3400,-88.2657,29.4,23.3,11111222
Chevron,ioos:station:wmo:42385:1,2021-12-03T05:53:00Z,28.3400,-88.2657,29.4,23.4,11111222
Chevron,ioos:station:wmo:42385:1,2021-12-03T06:13:00Z,28.3400,-88.2657,29.4,23.4,11111222
Chevron,ioos:station:wmo:42385:1,2021-12-03T06:33:00Z,28.3400,-88.2657,29.4,23.4,11111222
Chevron,ioos:station:wmo:42385:1,2021-12-03T06:53:00Z,28.3400,-88.2657,29.4,23.4,11111222
Chevron,ioos:station:wmo:42385:1,2021-12-03T07:13:00Z,28.3400,-88.2657,29.4,23.3,11111222
Chevron,ioos:station:wmo:42385:1,2021-12-03T07:33:00Z,28.3400,-88.2657,29.4,23.3,11111222
Chevron,ioos:station:wmo:42385:1,2021-12-03T07:53:00Z,28.3400,-88.2657,29.4,22.6,11111222
Chevron,ioos:station:wmo:42385:1,2021-12-03T08:13:00Z,28.3400,-88.2657,29.4,23.4,11111222
Chevron,ioos:station:wmo:42385:1,2021-12-03T08:33:00Z,28.3400,-88.2657,29.4,23.4,11111222
Chevron,ioos:station:wmo:42385:1,2021-12-03T08:53:00Z,28.3400,-88.2657,29.4,23.4,11111222
Chevron,ioos:station:wmo:42385:1,2021-12-03T09:13:00Z,28.3400,-88.2657,29.4,23.3,11111222
Chevron,ioos:station:wmo:42385:1,2021-12-03T09:33:00Z,28.3400,-88.2657,29.4,23.4,11111222
Chevron,ioos:station:wmo:42385:1,2021-12-03T09:53:00Z,28.3400,-88.2657,29.4,23.3,11111222
Chevron,ioos:station:wmo:42385:1,2021-12-03T10:13:00Z,28.3400,-88.2657,29.4,23.3,11111222
Chevron,ioos:station:wmo:42385:1,2021-12-03T10:33:00Z,28.3400,-88.2657,29.4,23.4,11111222
Chevron,ioos:station:wmo:42385:1,2021-12-03T10:53:00Z,28.3400,-88.2657,29.4,23.4,11111222
Chevron,ioos:station:wmo:42385:1,2021-12-03T11:13:00Z,28.3400,-88.2657,29.4,23.9,11111222
Chevron,ioos:station:wmo:42385:1,2021-12-03T11:33:00Z,28.3400,-88.2657,29.4,23.2,11111222
Chevron,ioos:station:wmo:42385:1,2021-12-03T11:53:00Z,28.3400,-88.2657,29.4,23.4,11111222
Chevron,ioos:station:wmo:42385:1,2021-12-03T12:13:00Z,28.3400,-88.2657,29.4,23.2,11111222
Chevron,ioos:station:wmo:42385:1,2021-12-03T12:33:00Z,28.3400,-88.2657,29.4,23.1,11111222
Chevron,ioos:station:wmo:42385:1,2021-12-03T12:53:00Z,28.3400,-88.2657,29.4,23.3,11111222
Chevron,ioos:station:wmo:42385:1,2021-12-03T13:13:00Z,28.3400,-88.2657,29.4,23.2,11111222
Chevron,ioos:station:wmo:42385:1,2021-12-03T13:33:00Z,28.3400,-88.2657,29.4,23.2,11111222
Chevron,ioos:station:wmo:42385:1,2021-12-03T13:53:00Z,28.3400,-88.2657,29.4,23.3,11111222
Chevron,ioos:station:wmo:42385:1,2021-12-03T14:13:00Z,28.3400,-88.2657,29.4,22.8,11111222
Chevron,ioos:station:wmo:42385:1,2021-12-03T14:33:00Z,28.3400,-88.2657,29.4,23.3,11111222
Chevron,ioos:station:wmo:42385:1,2021-12-03T14:53:00Z,28.3400,-88.2657,29.4,23.4,11111222
Chevron,ioos:station:wmo:42385:1,2021-12-03T15:13:00Z,28.3400,-88.2657,29.4,23.5,11111222
Chevron,ioos:station:wmo:42385:1,2021-12-03T15:33:00Z,28.3400,-88.2657,29.4,23.5,11111222
Chevron,ioos:station:wmo:42385:1,2021-12-03T15:53:00Z,28.3400,-88.2657,29.4,23.5,11111222
Chevron,ioos:station:wmo:42385:1,2021-12-03T16:13:00Z,28.3400,-88.2657,29.4,23.4,11111222
Chevron,ioos:station:wmo:42385:1,2021-12-03T16:33:00Z,28.3400,-88.2657,29.4,23.5,11111222
Chevron,ioos:station:wmo:42385:1,2021-12-03T16:53:00Z,28.3400,-88.2657,29.4,23.4,11111222
Chevron,ioos:station:wmo:42385:1,2021-12-03T17:13:00Z,28.3400,-88.2657,29.4,23.4,11111222
Chevron,ioos:station:wmo:42385:1,2021-12-03T17:33:00Z,28.3400,-88.2657,29.4,23.4,11111222
Chevron,ioos:station:wmo:42385:1,2021-12-03T17:53:00Z,28.3400,-88.2657,29.4,23.5,11111222
Chevron,ioos:station:wmo:42385:1,2021-12-03T18:13:00Z,28.3400,-88.2657,29.4,23.4,11111222
Chevron,ioos:station:wmo:42385:1,2021-12-03T18:33:00Z,28.3400,-88.2657,29.4,23.4,11111222
Chevron,ioos:station:wmo:42385:1,2021-12-03T18:53:00Z,28.3400,-88.2657,29.4,23.4,11111222
Chevron,ioos:station:wmo:42385:1,2021-12-03T19:13:00Z,28.3400,-88.2657,29.4,23.4,11111222
Chevron,ioos:station:wmo:42385:1,2021-12-03T19:33:00Z,28.3400,-88.2657,29.4,23.3,11111222
Chevron,ioos:station:wmo:42385:1,2021-12-03T19:53:00Z,28.3400,-88.2657,29.4,23.5,11111222
Chevron,ioos:station:wmo:42385:1,2021-12-03T20:13:00Z,28.3400,-88.2657,29.4,23.5,11111222
Chevron,ioos:station:wmo:42385:1,2021-12-03T20:33:00Z,28.3400,-88.2657,29.4,23.5,11111222
Chevron,ioos:station:wmo:42385:1,2021-12-03T20:53:00Z,28.3400,-88.2657,29.4,23.4,11111222
Chevron,ioos:station:wmo:42385:1,2021-12-03T21:13:00Z,28.3400,-88.2657,29.4,23.4,11111222
Chevron,ioos:station:wmo:42385:1,2021-12-03T21:33:00Z,28.3400,-88.2657,29.4,23.3,11111222
Chevron,ioos:station:wmo:42385:1,2021-12-03T21:53:00Z,28.3400,-88.2657,29.4,23.4,11111222
Chevron,ioos:station:wmo:42385:1,2021-12-03T22:13:00Z,28.3400,-88.2657,29.4,23.3,11111222
Chevron,ioos:station:wmo:42385:1,2021-12-03T22:33:00Z,28.3400,-88.2657,29.4,23.4,11111222
Chevron,ioos:station:wmo:42385:1,2021-12-03T22:53:00Z,28.3400,-88.2657,29.4,23.2,11111222
Chevron,ioos:station:wmo:42385:1,2021-12-03T23:13:00Z,28.3400,-88.2657,29.4,23.3,11111222
Chevron,ioos:station:wmo:42385:1,2021-12-03T23:33:00Z,28.3400,-88.2657,29.4,23.3,11111222
Chevron,ioos:station:wmo:42385:1,2021-12-03T23:53:00Z,28.3400,-88.2657,29.4,23.3,11111222
Chevron,ioos:station:wmo:42385:1,2021-12-04T00:13:00Z,28.3400,-88.2657,29.4,23.4,11111222
Chevron,ioos:station:wmo:42385:1,2021-12-04T00:33:00Z,28.3400,-88.2657,29.4,23.4,11111222
Chevron,ioos:station:wmo:42385:1,2021-12-04T00:53:00Z,28.3400,-88.2657,29.4,23.3,11111222
Chevron,ioos:station:wmo:42385:1,2021-12-04T01:13:00Z,28.3400,-88.2657,29.4,23.4,11111222
Chevron,ioos:station:wmo:42385:1,2021-12-04T01:33:00Z,28.3400,-88.2657,29.4,23.4,11111222
Chevron,ioos:station:wmo:42385:1,2021-12-04T01:53:00Z,28.3400,-88.2657,29.4,23.5,11111222
Chevron,ioos:station:wmo:42385:1,2021-12-04T02:13:00Z,28.3400,-88.2657,29.4,23.5,11111222
Chevron,ioos:station:wmo:42385:1,2021-12-04T02:33:00Z,28.3400,-88.2657,29.4,23.4,11111222
Chevron,ioos:station:wmo:42385:1,2021-12-04T02:53:00Z,28.3400,-88.2657,29.4,23.6,11111222
Chevron,ioos:station:wmo:42385:1,2021-12-04T03:13:00Z,28.3400,-88.2657,29.4,23.6,11111222
Chevron,ioos:station:wmo:42385:1,2021-12-04T03:33:00Z,28.3400,-88.2657,29.4,23.4,11111222
Chevron,ioos:station:wmo:42385:1,2021-12-04T03:53:00Z,28.3400,-88.2657,29.4,23.4,11111222
Chevron,ioos:station:wmo:42385:1,2021-12-04T04:13:00Z,28.3400,-88.2657,29.4,23.6,11111222
Chevron,ioos:station:wmo:42385:1,2021-12-04T04:33:00Z,28.3400,-88.2657,29.4,23.5,11111222
Chevron,ioos:station:wmo:42385:1,2021-12-04T04:53:00Z,28.3400,-88.2657,29.4,23.5,11111222
Chevron,ioos:station:wmo:42385:1,2021-12-04T05:13:00Z,28.3400,-88.2657,29.4,23.4,11111222
Chevron,ioos:station:wmo:42385:1,2021-12-04T05:33:00Z,28.3400,-88.2657,29.4,23.3,11111222
Chevron,ioos:station:wmo:42385:1,2021-12-04T05:53:00Z,28.3400,-88.2657,29.4,23.5,11111222
Chevron,ioos:station:wmo:42385:1,2021-12-04T06:13:00Z,28.3400,-88.2657,29.4,23.3,11111222
Chevron,ioos:station:wmo:42385:1,2021-12-04T06:33:00Z,28.3400,-88.2657,29.4,23.3,11111222
Chevron,ioos:station:wmo:42385:1,2021-12-04T06:53:00Z,28.3400,-88.2657,29.4,23.4,11111222
Chevron,ioos:station:wmo:42385:1,2021-12-04T07:13:00Z,28.3400,-88.2657,29.4,23.5,11111222
Chevron,ioos:station:wmo:42385:1,2021-12-04T07:33:00Z,28.3400,-88.2657,29.4,23.4,11111222
Chevron,ioos:station:wmo:42385:1,2021-12-04T07:53:00Z,28.3400,-88.2657,29.4,23.3,11111222
Chevron,ioos:station:wmo:42385:1,2021-12-04T08:13:00Z,28.3400,-88.2657,29.4,23.4,11111222
Chevron,ioos:station:wmo:42385:1,2021-12-04T08:33:00Z,28.3400,-88.2657,29.4,23.4,11111222
Chevron,ioos:station:wmo:42385:1,2021-12-04T08:53:00Z,28.3400,-88.2657,29.4,23.3,11111222
Chevron,ioos:station:wmo:42385:1,2021-12-04T09:13:00Z,28.3400,-88.2657,29.4,23.4,11111222
Chevron,ioos:station:wmo:42385:1,2021-12-04T09:33:00Z,28.3400,-88.2657,29.4,23.3,11111222
Chevron,ioos:station:wmo:42385:1,2021-12-04T09:53:00Z,28.3400,-88.2657,29.4,23.1,11111222
Chevron,ioos:station:wmo:42385:1,2021-12-04T10:13:00Z,28.3400,-88.2657,29.4,23.3,11111222
Chevron,ioos:station:wmo:42385:1,2021-12-04T10:33:00Z,28.3400,-88.2657,29.4,23.4,11111222
Chevron,ioos:station:wmo:42385:1,2021-12-04T10:53:00Z,28.3400,-88.2657,29.4,23.4,11111222
Chevron,ioos:station:wmo:42385:1,2021-12-04T11:13:00Z,28.3400,-88.2657,29.4,23.4,11111222
Chevron,ioos:station:wmo:42385:1,2021-12-04T11:33:00Z,28.3400,-88.2657,29.4,23.3,11111222
Chevron,ioos:station:wmo:42385:1,2021-12-04T11:53:00Z,28.3400,-88.2657,29.4,23.3,11111222
Chevron,ioos:station:wmo:42385:1,2021-12-04T12:13:00Z,28.3400,-88.2657,29.4,23.4,11111222
Chevron,ioos:station:wmo:42385:1,2021-12-04T12:33:00Z,28.3400,-88.2657,29.4,23.4,11111222
Chevron,ioos:station:wmo:42385:1,2021-12-04T12:53:00Z,28.3400,-88.2657,29.4,23.6,11111222
Chevron,ioos:station:wmo:42385:1,2021-12-04T13:13:00Z,28.3400,-88.2657,29.4,23.4,11111222
Chevron,ioos:station:wmo:42385:1,2021-12-04T13:33:00Z,28.3400,-88.2657,29.4,23.3,11111222
Chevron,ioos:station:wmo:42385:1,2021-12-04T13:53:00Z,28.3400,-88.2657,29.4,23.3,11111222
Chevron,ioos:station:wmo:42385:1,2021-12-04T14:13:00Z,28.3400,-88.2657,29.4,23.1,11111222
Chevron,ioos:station:wmo:42385:1,2021-12-04T14:33:00Z,28.3400,-88.2657,29.4,23.3,11111222
Chevron,ioos:station:wmo:42385:1,2021-12-04T14:53:00Z,28.3400,-88.2657,29.4,23.4,11111222
Chevron,ioos:station:wmo:42385:1,2021-12-04T15:13:00Z,28.3400,-88.2657,29.4,23.4,11111222